User: anonymous   Login
Location: *
(34.8620°S, 39.3380°E)
Time: 06:41:51
(UTC+00:00)
Language:

Cosmos 2228 - Orbit

View from above orbital plane
View from above orbital plane
View from above satellite
View from above satellite

Ground track
Ground track

The orbit data is extracted from the following two-line orbital elements,

1 22286U 92094A   21292.58128989  .00000346  00000-0  34656-4 0  9991
2 22286  82.5183 318.2426 0019546 255.1429 104.7624 14.88346927537199
Epoch (UTC): 19 October 2021 13:57:03
Eccentricity: 0.0019546
inclination: 82.5183°
perigee height: 589 km
apogee height: 617 km
right ascension of ascending node: 318.2426°
argument of perigee: 255.1429°
revolutions per day: 14.88346927
mean anomaly at epoch: 104.7624°
orbit number at epoch: 53719

The dashed part of the orbit path shows where the satellite is in the earth's shadow,  

DLR